PBO Station Position Time Series. Reference Frame : NAM14
Format Version,1.1.1
4-character ID,P616
Station name,Red_ButtesCS2007
Begin Date, 2007-05-10
End Date, 2023-06-26
Release Date, 2023-06-27
Reference position, 35.4245637621 North Latitude, -117.8933332253 East Longitude, 1071.19530 meters elevation,
Date, North (mm), East (mm), Vertical (mm), North Std. Deviation (mm), East Std. Deviation (mm),              Vertical Std. Deviation (mm), Quality,
2007-05-10,0.00, 0.00, 0.00, 2.01, 1.66, 7.54, repro,
2007-05-11,-0.60, 0.44, -2.67, 2.01, 1.66, 7.57, repro,
2007-05-12,-0.86, 1.69, 3.81, 1.93, 1.59, 7.22, repro,
2007-05-13,0.16, 0.84, 6.56, 1.96, 1.61, 7.28, repro,
2007-05-14,-0.22, 1.82, 0.84, 1.95, 1.62, 7.27, repro,
2007-05-15,-0.61, 0.61, -0.56, 1.96, 1.66, 7.34, repro,
2007-05-16,-0.68, 0.97, -0.49, 1.97, 1.66, 7.38, repro,
2007-05-17,-1.13, 0.86, 4.24, 1.94, 1.64, 7.30, repro,
2007-05-18,-0.24, 0.17, 1.59, 2.07, 1.77, 7.64, repro,
2007-05-19,-0.22, 1.58, -0.04, 1.96, 1.62, 7.26, repro,
2007-05-20,-0.66, 2.24, 2.84, 2.04, 1.74, 7.65, repro,
2007-05-21,0.15, 1.17, 5.34, 2.00, 1.71, 7.50, repro,
2007-05-22,0.99, -0.77, 10.76, 1.97, 1.64, 7.36, repro,
2007-05-23,0.54, -0.04, 0.28, 2.00, 1.70, 7.51, repro,
2007-05-24,-0.95, 0.00, 5.50, 2.06, 1.78, 7.73, repro,
2007-05-25,-1.11, 1.14, 3.79, 1.95, 1.63, 7.24, repro,
2007-05-26,-0.63, 0.47, 2.02, 2.00, 1.70, 7.48, repro,
2007-05-27,-1.06, 1.52, 6.30, 1.94, 1.61, 7.19, repro,
2007-05-28,-1.02, 0.57, 6.66, 1.92, 1.59, 7.12, repro,
2007-05-29,-1.52, 1.34, 6.25, 1.93, 1.59, 7.13, repro,
2007-05-30,-1.00, 1.47, 3.00, 1.97, 1.60, 7.22, repro,
2007-05-31,0.00, 0.20, -3.30, 1.98, 1.63, 7.30, repro,
2007-06-01,-1.05, 0.86, 6.91, 1.94, 1.61, 7.18, repro,
2007-06-02,-0.96, 0.73, 5.56, 1.93, 1.61, 7.20, repro,
2007-06-03,-0.51, 0.45, 3.25, 1.92, 1.60, 7.16, repro,
2007-06-04,-0.88, 1.46, 8.98, 1.91, 1.60, 7.15, repro,
2007-06-05,0.16, 5.09, 6.96, 1.97, 1.61, 7.26, repro,
2007-06-06,-2.62, -0.65, 26.32, 1.99, 1.68, 7.52, repro,
2007-06-07,-0.27, -0.31, 8.78, 1.92, 1.59, 7.17, repro,
2007-06-08,0.23, 0.24, -1.92, 1.92, 1.60, 7.19, repro,
2007-06-09,-0.98, 1.07, 4.20, 1.93, 1.64, 7.27, repro,
2007-06-10,-1.36, 0.18, 3.27, 1.95, 1.63, 7.34, repro,
2007-06-11,0.16, 0.88, 6.48, 1.97, 1.71, 7.40, repro,
2007-06-12,-1.39, 1.72, 4.51, 1.97, 1.70, 7.40, repro,
2007-06-13,-1.05, 1.59, 0.92, 1.96, 1.65, 7.32, repro,
2007-06-14,-0.66, 1.95, -4.64, 1.95, 1.65, 7.26, repro,
2007-06-15,-1.07, 2.08, -3.15, 1.92, 1.60, 7.19, repro,
2007-06-16,-0.23, 0.88, 8.82, 1.92, 1.60, 7.19, repro,
2007-06-17,-0.64, 2.19, 1.72, 1.96, 1.69, 7.38, repro,
2007-06-18,-1.38, 1.65, 5.05, 1.90, 1.59, 7.10, repro,
2007-06-19,-0.81, 1.37, -5.05, 1.91, 1.60, 7.16, repro,
2007-06-20,-0.20, 1.72, -8.36, 1.91, 1.60, 7.15, repro,
2007-06-21,-0.95, 1.88, 3.92, 1.91, 1.59, 7.15, repro,
2007-06-22,-0.40, 1.46, 2.52, 1.92, 1.61, 7.20, repro,
2007-06-23,-1.51, 1.40, 3.74, 1.94, 1.66, 7.29, repro,
2007-06-24,0.14, 1.80, -1.08, 1.94, 1.64, 7.35, repro,
2007-06-25,0.61, 0.16, -7.56, 1.92, 1.59, 7.17, repro,
2007-06-26,-1.05, 1.83, -3.96, 1.91, 1.59, 7.15, repro,
2007-06-27,-1.10, 1.83, -2.87, 1.93, 1.60, 7.23, repro,
2007-06-28,-1.56, 2.04, 2.48, 1.91, 1.60, 7.15, repro,
2007-06-29,-0.90, 2.04, 1.07, 1.91, 1.60, 7.18, repro,
2007-06-30,-0.44, 1.95, 1.08, 1.91, 1.59, 7.17, repro,
2007-07-01,0.33, 1.02, 2.48, 1.92, 1.59, 7.22, repro,
2007-07-02,-2.03, 3.12, 1.70, 1.92, 1.60, 7.24, repro,
2007-07-03,0.02, 1.64, -6.22, 1.90, 1.60, 7.16, repro,
2007-07-04,-1.24, 1.46, 2.75, 1.95, 1.68, 7.37, repro,
2007-07-05,0.08, 2.15, -2.17, 1.93, 1.61, 7.25, repro,
2007-07-06,0.45, 1.70, 2.94, 1.95, 1.68, 7.41, repro,
2007-07-07,-0.18, 1.61, -0.78, 1.95, 1.66, 7.36, repro,
2007-07-08,-1.63, 1.64, 4.99, 1.91, 1.61, 7.17, repro,
2007-07-09,-1.42, 2.63, 2.11, 1.94, 1.68, 7.34, repro,
2007-07-10,-0.04, 0.92, -4.81, 1.92, 1.61, 7.21, repro,
2007-07-11,-1.85, 3.18, -2.50, 1.93, 1.60, 7.20, repro,
2007-07-12,-1.41, 2.94, 1.11, 1.95, 1.66, 7.32, repro,
2007-07-13,0.07, 2.57, -5.39, 1.95, 1.67, 7.32, repro,
2007-07-14,-1.41, 3.09, 4.17, 1.94, 1.66, 7.24, repro,
2007-07-15,-0.22, 2.04, -2.59, 1.95, 1.68, 7.36, repro,
2007-07-16,-1.80, 1.84, 5.76, 1.95, 1.67, 7.37, repro,
2007-07-17,1.01, 0.11, -2.02, 1.94, 1.60, 7.25, repro,
2007-07-18,-0.21, 4.20, -5.06, 2.01, 1.79, 7.59, repro,
2007-07-19,0.35, 3.05, 1.80, 1.95, 1.67, 7.32, repro,
2007-07-20,0.17, 1.98, 7.57, 1.94, 1.68, 7.33, repro,
2007-07-21,-1.01, 1.88, 1.63, 1.96, 1.67, 7.39, repro,
2007-07-22,-1.00, 3.38, 0.65, 2.02, 1.69, 7.58, repro,
2007-07-23,0.75, 2.76, 7.12, 1.96, 1.67, 7.43, repro,
2007-07-24,0.09, 3.23, 4.51, 1.97, 1.68, 7.44, repro,
2007-07-25,-0.10, 2.53, 1.40, 1.96, 1.69, 7.43, repro,
2007-07-26,-0.91, 1.87, -1.50, 1.94, 1.62, 7.30, repro,
2007-07-27,-1.40, 2.69, 1.73, 1.97, 1.68, 7.43, repro,
2007-07-28,-0.86, 0.18, 3.98, 1.95, 1.68, 7.44, repro,
2007-07-29,-1.61, 2.68, 8.39, 1.96, 1.69, 7.46, repro,
2007-07-30,-1.57, 1.85, 7.54, 1.96, 1.69, 7.41, repro,
2007-07-31,-1.45, 2.52, -0.47, 1.94, 1.68, 7.37, repro,
2007-08-01,0.24, 3.51, 9.41, 1.92, 1.61, 7.23, repro,
2007-08-02,-1.34, 2.35, 2.70, 1.92, 1.60, 7.18, repro,
2007-08-03,-0.86, 2.68, -4.92, 1.94, 1.63, 7.28, repro,
2007-08-04,-0.03, 2.35, 2.38, 1.95, 1.68, 7.39, repro,
2007-08-05,-1.33, 2.32, 7.96, 1.95, 1.63, 7.34, repro,
2007-08-06,-0.16, 1.43, 7.75, 1.94, 1.65, 7.37, repro,
2007-08-07,-0.99, 2.49, 2.91, 1.93, 1.64, 7.33, repro,
2007-08-08,-1.02, 1.68, 5.00, 1.91, 1.61, 7.19, repro,
2007-08-09,0.16, 2.76, 10.07, 1.91, 1.60, 7.15, repro,
2007-08-10,-0.02, 2.30, 11.33, 1.94, 1.69, 7.40, repro,
2007-08-11,-0.36, 2.04, 4.65, 1.90, 1.60, 7.15, repro,
2007-08-12,-0.42, 2.48, 6.51, 1.91, 1.61, 7.21, repro,
2007-08-13,-1.01, 2.46, 1.18, 1.91, 1.59, 7.14, repro,
2007-08-14,0.22, 2.98, 0.36, 2.03, 1.71, 7.60, repro,
2007-08-15,-0.73, 2.17, 3.57, 2.07, 1.80, 7.83, repro,
2007-08-16,-0.95, 1.73, 6.71, 2.02, 1.73, 7.69, repro,
2007-08-17,-0.01, 1.10, 7.54, 1.99, 1.66, 7.54, repro,
2007-08-18,1.19, 2.24, -2.06, 2.01, 1.70, 7.69, repro,
2007-08-19,0.23, 1.09, 5.42, 2.02, 1.70, 7.78, repro,
2007-08-20,-0.27, 2.10, 5.72, 1.98, 1.65, 7.45, repro,
2007-08-21,1.65, 2.17, 1.03, 2.07, 1.75, 7.84, repro,
2007-08-22,1.11, 2.30, 6.59, 2.03, 1.74, 7.68, repro,
2007-08-23,0.70, 2.26, 9.65, 1.95, 1.61, 7.31, repro,
2007-08-24,0.31, 2.45, 4.44, 2.06, 1.71, 7.70, repro,
2007-08-25,0.49, 1.83, -2.00, 1.99, 1.68, 7.47, repro,
2007-08-26,0.21, 1.94, 7.23, 2.04, 1.73, 7.70, repro,
2007-08-27,-0.11, 2.60, 2.63, 2.05, 1.75, 7.79, repro,
2007-08-28,-0.08, 3.04, 4.72, 2.04, 1.75, 7.73, repro,
2007-08-29,0.21, 3.06, -3.12, 2.01, 1.70, 7.55, repro,
2007-08-30,0.88, 1.80, 2.06, 2.01, 1.70, 7.59, repro,
2007-08-31,0.71, 1.50, 3.13, 2.18, 1.78, 8.15, repro,
2007-09-01,2.09, 4.04, 3.44, 2.09, 1.73, 7.87, repro,
2007-09-02,1.52, 1.23, 1.09, 2.33, 1.89, 8.41, repro,
2007-09-03,0.48, 1.09, 2.06, 2.07, 1.84, 7.94, repro,
2007-09-04,1.07, 0.94, -0.82, 2.11, 1.82, 7.81, repro,
2007-09-05,-0.40, 2.45, 12.00, 1.99, 1.69, 7.48, repro,
2007-09-06,0.41, 1.39, 5.35, 2.00, 1.69, 7.50, repro,
2007-09-07,-0.33, 0.52, 5.35, 2.01, 1.71, 7.58, repro,
2007-09-08,0.82, 1.18, 2.80, 2.07, 1.80, 7.96, repro,
2007-09-09,-0.83, 1.93, 3.23, 2.09, 1.81, 7.92, repro,
2007-09-10,-0.84, 2.08, 6.06, 2.06, 1.75, 7.74, repro,
2007-09-11,-1.35, 1.95, 3.60, 2.07, 1.76, 7.67, repro,
2007-09-12,0.43, 0.62, 0.79, 2.06, 1.73, 7.70, repro,
2007-09-13,-1.79, 0.60, 2.42, 2.13, 1.72, 7.87, repro,
2007-09-14,0.46, 1.33, -5.18, 2.06, 1.74, 7.75, repro,
2007-09-15,0.87, -0.17, 4.09, 2.16, 1.70, 7.98, repro,
2007-09-16,0.58, 1.67, 7.64, 2.10, 1.70, 7.77, repro,
2007-09-17,0.67, -0.11, 4.79, 2.09, 1.79, 7.94, repro,
2007-09-18,-0.49, 1.02, 2.83, 1.98, 1.70, 7.48, repro,
2007-09-19,0.42, 0.40, -1.47, 1.94, 1.62, 7.29, repro,
2007-09-20,-0.64, 1.50, -0.90, 1.94, 1.62, 7.27, repro,
2007-09-21,0.13, 1.32, 8.72, 1.99, 1.63, 7.42, repro,
2007-09-22,-1.47, 2.63, 11.22, 2.00, 1.64, 7.46, repro,
2007-09-23,-0.57, 0.40, 2.23, 2.03, 1.72, 7.75, repro,
2007-09-24,-0.40, 1.25, 9.94, 2.09, 1.73, 7.85, repro,
2007-09-25,-2.45, 0.67, -1.31, 1.99, 1.66, 7.49, repro,
2007-09-26,-0.14, 1.46, 6.89, 2.06, 1.68, 7.77, repro,
2007-09-27,-1.02, 1.90, 2.10, 2.09, 1.70, 7.85, repro,
2007-09-28,-2.77, 2.12, 7.24, 1.98, 1.71, 7.54, repro,
2007-09-29,-1.05, 0.95, 8.48, 2.00, 1.73, 7.69, repro,
2007-09-30,-0.04, -0.34, 5.61, 2.05, 1.73, 7.80, repro,
2007-10-01,-0.31, 1.27, 5.36, 2.00, 1.72, 7.67, repro,
2007-10-02,-1.17, 1.03, 8.53, 2.01, 1.75, 7.78, repro,
2007-10-03,1.03, 1.32, 8.08, 2.08, 1.70, 7.86, repro,
2007-10-04,-0.82, 0.72, 11.58, 2.00, 1.70, 7.62, repro,
2007-10-05,-1.02, -0.61, 8.70, 2.03, 1.77, 7.92, repro,
2007-10-06,-1.72, 0.68, 7.85, 2.05, 1.73, 7.82, repro,
2007-10-07,-0.97, 1.42, 2.34, 2.01, 1.71, 7.70, repro,
2007-10-08,-0.47, 1.04, 4.13, 2.18, 1.84, 8.52, repro,
2007-10-09,-0.84, 1.27, 5.38, 2.12, 1.86, 8.21, repro,
2007-10-10,-1.74, -0.68, 3.51, 2.17, 1.85, 8.42, repro,
2007-10-11,-0.56, -0.14, 2.90, 2.01, 1.77, 7.89, repro,
2007-10-12,-2.03, 0.98, 9.17, 1.95, 1.68, 7.57, repro,
2007-10-13,-2.20, 0.99, 12.70, 1.94, 1.65, 7.42, repro,
2007-10-14,-0.53, 1.33, 10.99, 1.93, 1.65, 7.40, repro,
2007-10-15,-2.49, 0.67, 7.97, 2.01, 1.77, 7.78, repro,
2007-10-16,-3.05, 1.45, 13.46, 1.95, 1.69, 7.48, repro,
2007-10-17,-6.00, 4.94, 26.08, 2.03, 1.79, 8.03, repro,
2007-10-18,-0.85, 0.36, 10.72, 1.93, 1.65, 7.38, repro,
2007-10-19,-1.44, 2.09, 11.93, 1.93, 1.65, 7.40, repro,
2007-10-20,-2.88, -0.38, 13.14, 2.03, 1.86, 8.04, repro,
2007-10-21,-1.27, 1.05, 11.07, 1.96, 1.74, 7.57, repro,
2007-10-22,-1.91, -0.55, 0.59, 1.95, 1.65, 7.39, repro,
2007-10-23,-1.52, -1.40, -5.79, 1.96, 1.71, 7.56, repro,
2007-10-24,-2.37, 1.83, 5.52, 2.02, 1.75, 7.75, repro,
2007-10-25,-1.87, 1.71, 5.38, 1.94, 1.66, 7.43, repro,
2007-10-26,-1.74, 1.29, 7.58, 2.04, 1.85, 7.91, repro,
2007-10-27,-1.20, 1.40, 1.79, 1.97, 1.73, 7.58, repro,
2007-10-28,-1.02, 2.58, -3.94, 1.94, 1.66, 7.43, repro,
2007-10-29,-2.58, 1.10, -1.03, 1.97, 1.73, 7.58, repro,
2007-10-30,-1.62, 2.12, 0.46, 1.94, 1.65, 7.43, repro,
2007-10-31,-1.48, 0.83, 4.47, 1.98, 1.73, 7.66, repro,
2007-11-01,-1.14, 0.82, 3.07, 1.92, 1.63, 7.27, repro,
2007-11-02,-0.40, 0.81, -0.13, 1.97, 1.72, 7.59, repro,
2007-11-03,-1.02, 2.11, -2.83, 1.90, 1.61, 7.17, repro,
2007-11-04,-1.46, 1.81, 3.14, 1.91, 1.62, 7.22, repro,
2007-11-05,-0.61, 1.27, -2.42, 1.94, 1.69, 7.39, repro,
2007-11-06,-1.16, 1.43, -4.80, 1.99, 1.74, 7.61, repro,
2007-11-07,-0.33, 1.08, -0.73, 1.95, 1.70, 7.39, repro,
2007-11-08,-2.47, 1.36, 3.63, 1.92, 1.66, 7.29, repro,
2007-11-09,-1.53, 0.73, -2.19, 1.98, 1.74, 7.59, repro,
2007-11-10,-0.60, 2.22, 3.09, 1.94, 1.69, 7.41, repro,
2007-11-11,0.18, 0.16, 0.87, 1.92, 1.63, 7.33, repro,
2007-11-12,0.32, 0.54, 6.45, 1.92, 1.63, 7.29, repro,
2007-11-13,-0.51, 0.25, 0.03, 1.93, 1.69, 7.38, repro,
2007-11-14,-0.37, 1.01, 0.18, 1.93, 1.66, 7.33, repro,
2007-11-15,-0.39, 2.07, 2.94, 1.97, 1.71, 7.55, repro,
2007-11-16,0.73, 1.56, 1.96, 1.94, 1.63, 7.32, repro,
2007-11-17,-0.38, 0.62, -0.45, 1.92, 1.62, 7.30, repro,
2007-11-18,-0.55, 0.30, -2.23, 1.89, 1.62, 7.21, repro,
2007-11-19,-1.19, 1.12, 5.91, 1.90, 1.63, 7.26, repro,
2007-11-20,-1.20, 1.01, -12.79, 1.97, 1.73, 7.49, repro,
2007-11-21,0.24, 0.34, -3.37, 1.97, 1.72, 7.52, repro,
2007-11-22,-0.57, 0.40, -4.34, 1.97, 1.69, 7.43, repro,
2007-11-23,0.16, -0.12, -7.80, 1.99, 1.78, 7.54, repro,
2007-11-24,-0.13, 1.68, -3.42, 1.99, 1.73, 7.48, repro,
2007-11-25,-0.57, 0.76, 1.87, 1.98, 1.74, 7.48, repro,
2007-11-26,-0.47, 0.82, -2.20, 2.07, 1.84, 7.94, repro,
2007-11-27,0.19, 1.83, -1.73, 2.05, 1.76, 7.78, repro,
2007-11-28,0.47, 1.03, -9.82, 2.07, 1.74, 7.68, repro,
2007-11-29,-1.14, 0.55, -8.23, 1.99, 1.71, 7.62, repro,
2007-11-30,-0.37, 1.20, -1.16, 2.03, 1.78, 7.60, repro,
2007-12-01,-1.47, 2.47, 3.44, 2.09, 1.84, 7.97, repro,
2007-12-02,0.06, 0.82, 1.50, 2.09, 1.82, 7.91, repro,
2007-12-03,0.03, 2.64, -6.25, 2.16, 1.82, 8.31, repro,
2007-12-04,0.42, 0.30, -6.62, 2.17, 1.96, 8.41, repro,
2007-12-05,0.32, 1.94, -4.36, 2.21, 2.01, 8.75, repro,
2007-12-06,0.42, 3.47, -1.79, 2.28, 2.04, 8.62, repro,
2007-12-07,1.58, 0.34, 4.26, 2.11, 1.86, 8.09, repro,
2007-12-08,2.14, 0.29, 6.29, 1.98, 1.73, 7.54, repro,
2007-12-09,0.73, 3.40, -5.34, 2.32, 2.15, 8.95, repro,
2007-12-10,-1.06, 0.67, -2.62, 2.02, 1.80, 7.64, repro,
2007-12-11,-1.05, -0.11, -2.91, 2.05, 1.77, 7.74, repro,
2007-12-12,1.68, 0.05, -10.69, 2.07, 1.73, 7.95, repro,
2007-12-13,0.09, 0.26, -3.38, 2.04, 1.77, 7.81, repro,
2007-12-14,0.10, 1.55, -1.78, 1.97, 1.65, 7.48, repro,
2007-12-15,-1.05, 1.85, 1.23, 1.98, 1.65, 7.52, repro,
2007-12-16,-0.40, 1.58, -1.54, 1.98, 1.66, 7.56, repro,
2007-12-17,0.88, 0.46, 4.47, 2.05, 1.72, 7.72, repro,
2007-12-18,0.08, 1.29, -4.31, 2.02, 1.72, 7.63, repro,
2007-12-19,-0.02, 2.49, 2.30, 2.08, 1.72, 7.78, repro,
2007-12-20,-0.92, 1.74, 2.08, 1.97, 1.65, 7.42, repro,
2007-12-21,-0.90, -0.43, 2.23, 2.08, 1.74, 7.85, repro,
2007-12-22,0.53, 0.51, -4.43, 2.10, 1.77, 8.01, repro,
2007-12-23,-0.61, 1.39, -1.97, 2.04, 1.74, 7.71, repro,
2007-12-24,0.38, -0.35, 0.06, 1.99, 1.68, 7.52, repro,
2007-12-25,0.06, -0.89, 4.23, 1.97, 1.67, 7.48, repro,
2007-12-26,-0.99, 2.61, 10.11, 2.03, 1.74, 7.65, repro,
2007-12-27,-0.53, 1.90, 0.96, 2.14, 1.85, 8.26, repro,
2007-12-28,-1.17, 1.54, -2.21, 2.10, 1.81, 7.94, repro,
2007-12-29,-0.50, 1.66, -2.14, 2.00, 1.66, 7.51, repro,
2007-12-30,-0.29, 0.16, 1.93, 2.03, 1.70, 7.60, repro,
2007-12-31,-0.87, 1.48, -6.29, 1.96, 1.62, 7.40, repro,
2008-01-01,-0.22, 0.89, -12.20, 1.97, 1.65, 7.47, repro,
2008-01-02,-0.17, 1.46, -12.18, 1.97, 1.62, 7.41, repro,
2008-01-03,-0.07, 0.21, 0.58, 1.99, 1.67, 7.52, repro,
2008-01-04,-1.57, 2.27, 0.95, 1.98, 1.66, 7.44, repro,
2008-01-05,-0.94, 0.47, 20.53, 2.00, 1.73, 7.60, repro,
2008-01-06,-1.61, 1.98, 23.11, 1.98, 1.68, 7.55, repro,
2008-01-07,0.64, -0.53, 3.25, 1.93, 1.60, 7.30, repro,
2008-01-08,-0.25, 1.14, 0.86, 2.00, 1.62, 7.58, repro,
2008-01-09,-0.04, 1.05, 2.24, 2.07, 1.74, 7.88, repro,
2008-01-10,-0.19, -0.41, 1.69, 2.03, 1.74, 7.68, repro,
2008-01-11,-1.31, -0.08, -2.46, 1.93, 1.61, 7.39, repro,
2008-01-12,-0.53, 1.23, -2.15, 1.93, 1.62, 7.34, repro,
2008-01-13,-0.47, 0.13, -8.07, 1.97, 1.68, 7.46, repro,
2008-01-14,0.01, 1.16, -2.43, 1.96, 1.68, 7.47, repro,
2008-01-15,-0.77, 1.68, -1.28, 1.93, 1.61, 7.36, repro,
2008-01-16,-1.22, -0.23, -1.46, 1.96, 1.63, 7.46, repro,
2008-01-17,-0.09, 0.79, -3.32, 1.95, 1.64, 7.45, repro,
2008-01-18,-0.94, 0.65, 2.64, 2.02, 1.74, 7.71, repro,
2008-01-19,-1.03, 1.04, -5.60, 1.95, 1.68, 7.41, repro,
2008-01-20,-1.24, 1.56, -1.57, 1.92, 1.61, 7.28, repro,
2008-01-21,-1.77, 2.40, 4.95, 1.96, 1.70, 7.50, repro,
2008-01-22,-0.67, 0.58, -4.80, 1.91, 1.61, 7.25, repro,
2008-01-23,-0.93, 1.20, -3.36, 1.92, 1.62, 7.26, repro,
2008-01-24,-1.67, 3.02, -0.29, 1.92, 1.60, 7.21, repro,
2008-01-25,-1.45, 3.79, -7.72, 1.91, 1.61, 7.24, repro,
2008-01-26,-1.92, 2.39, -3.38, 1.95, 1.69, 7.44, repro,
2008-01-27,-2.11, 1.02, 5.95, 1.95, 1.70, 7.44, repro,
2008-01-28,-1.41, 2.48, 7.58, 1.96, 1.64, 7.39, repro,
2008-01-29,-2.21, 2.10, 5.05, 2.01, 1.75, 7.61, repro,
2008-01-30,-3.22, 2.03, 13.12, 2.03, 1.71, 7.63, repro,
2008-01-31,-0.50, 1.02, -5.33, 1.91, 1.63, 7.30, repro,
2008-02-01,-4.79, 2.42, 3.91, 1.91, 1.61, 7.23, repro,
2008-02-02,-2.07, 2.88, -5.94, 1.90, 1.61, 7.25, repro,
2008-02-03,-0.00, 0.33, 4.12, 1.91, 1.62, 7.31, repro,
2008-02-04,-1.86, 1.59, -0.12, 1.91, 1.61, 7.25, repro,
2008-02-05,0.57, 0.77, -5.40, 1.99, 1.76, 7.63, repro,
2008-02-06,-1.84, 1.20, -3.14, 1.95, 1.68, 7.45, repro,
2008-02-07,-0.44, 1.13, -2.75, 1.93, 1.65, 7.48, repro,
2008-02-08,-0.10, 0.93, -5.73, 1.95, 1.69, 7.46, repro,
2008-02-09,-1.56, 1.96, -5.62, 1.91, 1.61, 7.25, repro,
2008-02-10,-1.30, 1.67, -1.71, 1.92, 1.61, 7.31, repro,
2008-02-11,-0.64, 1.38, -1.89, 1.91, 1.62, 7.26, repro,
2008-02-12,-1.80, 1.71, -1.12, 1.93, 1.62, 7.33, repro,
2008-02-13,-2.30, -0.19, 8.23, 1.97, 1.72, 7.57, repro,
2008-02-14,-0.73, 2.09, -3.46, 2.14, 1.90, 8.23, repro,
2008-02-15,0.21, 2.85, -12.48, 1.94, 1.66, 7.36, repro,
2008-02-16,-0.61, 0.54, -2.86, 1.91, 1.61, 7.24, repro,
2008-02-17,-1.47, 0.73, -4.08, 1.92, 1.63, 7.33, repro,
2008-02-18,-0.88, 0.92, -1.84, 1.91, 1.61, 7.26, repro,
2008-02-19,-1.51, 0.66, -1.41, 1.91, 1.61, 7.27, repro,
2008-02-20,-1.89, -1.58, -12.37, 1.93, 1.62, 7.31, repro,
2008-02-21,-1.81, 1.67, 2.82, 1.96, 1.68, 7.39, repro,
2008-02-22,-1.58, 2.53, 5.97, 1.91, 1.62, 7.26, repro,
2008-02-23,-1.86, 2.02, 3.86, 1.94, 1.65, 7.41, repro,
2008-02-24,-0.03, 1.06, 4.05, 1.91, 1.62, 7.28, repro,
2008-02-25,1.24, 0.11, 4.05, 1.94, 1.64, 7.45, repro,
2008-02-26,-0.88, 0.57, -9.77, 1.91, 1.61, 7.24, repro,
2008-02-27,-0.29, 0.90, -11.05, 1.94, 1.65, 7.40, repro,
2008-02-28,-1.21, -0.10, -6.32, 1.97, 1.70, 7.66, repro,
2008-02-29,-1.37, 1.44, -3.17, 1.94, 1.65, 7.50, repro,
2008-03-01,-2.22, 0.57, -4.12, 2.05, 1.83, 8.01, repro,
2008-03-02,0.24, -0.19, -6.17, 2.05, 1.75, 7.78, repro,
2008-03-03,-1.06, 0.11, -3.98, 1.92, 1.60, 7.28, repro,
2008-03-04,-1.06, 1.26, -5.94, 1.95, 1.69, 7.44, repro,
2008-03-05,-1.15, 0.07, -2.12, 1.98, 1.73, 7.69, repro,
2008-03-06,-0.63, 0.33, -6.06, 1.96, 1.65, 7.56, repro,
2008-03-07,-0.23, -0.38, -3.54, 1.93, 1.60, 7.32, repro,
2008-03-08,-1.44, 1.76, 9.24, 2.02, 1.76, 7.82, repro,
2008-03-09,-1.84, -0.04, -0.26, 1.94, 1.63, 7.43, repro,
2008-03-10,-0.39, 0.16, -5.16, 1.94, 1.68, 7.38, repro,
2008-03-11,0.19, 0.12, -3.48, 1.96, 1.68, 7.43, repro,
2008-03-12,0.25, -0.05, -1.75, 1.95, 1.64, 7.51, repro,
2008-03-13,-2.64, 3.05, 3.51, 1.97, 1.65, 7.52, repro,
2008-03-14,-3.93, 6.16, 14.29, 1.96, 1.65, 7.52, repro,
2008-03-15,-1.07, 2.52, 4.28, 1.95, 1.64, 7.50, repro,
2008-03-16,0.37, -1.03, 1.38, 1.98, 1.69, 7.68, repro,
2008-03-17,0.63, -0.87, -9.05, 2.03, 1.78, 7.93, repro,
2008-03-18,-0.62, 0.69, -2.51, 1.96, 1.68, 7.51, repro,
2008-03-19,0.99, -1.03, -3.22, 1.96, 1.65, 7.46, repro,
2008-03-20,-1.61, 2.51, 0.89, 1.96, 1.65, 7.46, repro,
2008-03-21,0.45, -1.04, -5.71, 1.94, 1.64, 7.36, repro,
2008-03-22,0.41, 0.03, -6.45, 1.98, 1.68, 7.61, repro,
2008-03-23,-0.09, -0.69, -5.97, 1.99, 1.72, 7.55, repro,
2008-03-24,0.52, -0.17, -2.72, 1.94, 1.63, 7.36, repro,
2008-03-25,-0.53, 0.65, -3.46, 1.99, 1.69, 7.51, repro,
2008-03-26,-3.60, 9.09, 9.34, 1.99, 1.68, 7.52, repro,
2008-03-27,-2.46, 0.94, -6.07, 2.00, 1.70, 7.58, repro,
2008-03-28,-0.18, 1.18, 2.43, 1.97, 1.64, 7.37, repro,
2008-03-29,-0.16, 0.25, 12.89, 1.95, 1.63, 7.40, repro,
2008-03-30,-3.08, -0.19, 9.88, 1.99, 1.65, 7.57, repro,
2008-03-31,-0.02, 1.10, 1.50, 1.96, 1.62, 7.38, repro,
2008-04-01,-0.87, 0.60, 0.79, 1.96, 1.63, 7.46, repro,
2008-04-02,-0.56, -0.26, 2.51, 2.00, 1.63, 7.59, repro,
2008-04-03,-0.20, -0.28, -1.73, 1.94, 1.59, 7.25, repro,
2008-04-04,-0.74, 1.54, -4.92, 1.95, 1.61, 7.36, repro,
2008-04-05,0.36, 0.58, -0.62, 1.95, 1.64, 7.43, repro,
2008-04-06,0.06, 0.49, 11.40, 2.01, 1.67, 7.53, repro,
2008-04-07,0.74, -0.75, 6.28, 1.95, 1.62, 7.41, repro,
2008-04-08,-0.57, -3.96, 3.72, 1.96, 1.61, 7.41, repro,
2008-04-09,-1.71, 0.59, 4.55, 1.97, 1.67, 7.45, repro,
2008-04-10,-0.28, 0.54, 2.42, 1.94, 1.60, 7.30, repro,
2008-04-11,-0.86, 0.45, 0.56, 2.00, 1.68, 7.56, repro,
2008-04-12,-0.89, 0.16, -3.98, 1.97, 1.67, 7.45, repro,
2008-04-13,-1.06, 1.08, -5.07, 1.93, 1.59, 7.24, repro,
2008-04-14,-0.11, -0.19, -3.49, 1.94, 1.60, 7.30, repro,
2008-04-15,-1.90, -0.28, 11.90, 1.98, 1.65, 7.48, repro,
2008-04-16,-0.42, -0.96, 2.19, 1.97, 1.66, 7.50, repro,
2008-04-17,-0.14, 0.35, -6.13, 1.99, 1.67, 7.47, repro,
2008-04-18,-0.43, -0.52, -0.36, 1.98, 1.66, 7.45, repro,
2008-04-19,-0.76, 0.20, -0.23, 1.95, 1.60, 7.32, repro,
2008-04-20,1.55, -1.48, 2.14, 1.95, 1.59, 7.32, repro,
2008-04-21,-0.65, 0.80, 1.70, 1.95, 1.61, 7.41, repro,
2008-04-22,-1.66, 0.09, -2.15, 1.96, 1.60, 7.35, repro,
2008-04-23,0.34, -2.35, -0.02, 2.08, 1.78, 7.89, repro,
2008-04-24,-2.98, 2.62, -3.84, 1.99, 1.64, 7.54, repro,
2008-04-25,-0.38, 1.84, 1.26, 1.96, 1.60, 7.41, repro,
2008-04-26,-0.12, 0.57, -2.87, 2.05, 1.68, 7.70, repro,
2008-04-27,-1.84, 0.32, -3.70, 2.04, 1.62, 7.60, repro,
2008-04-28,-1.16, 1.12, -2.27, 2.05, 1.62, 7.58, repro,
2008-04-29,0.61, -2.38, 0.50, 2.13, 1.65, 7.78, repro,
2008-04-30,-3.10, -2.72, 16.94, 2.09, 1.67, 7.73, repro,
2008-05-01,-1.10, 0.00, 2.94, 2.05, 1.71, 7.69, repro,
2008-05-02,-0.81, 1.13, -0.49, 2.05, 1.67, 7.64, repro,
2008-05-03,-0.19, -0.50, -5.10, 1.97, 1.61, 7.40, repro,
2008-05-04,-1.39, 0.44, 3.47, 1.97, 1.59, 7.34, repro,
2008-05-05,-1.30, 1.67, 0.50, 2.01, 1.63, 7.51, repro,
2008-05-06,-0.50, 1.02, -4.80, 2.00, 1.63, 7.52, repro,
2008-05-07,-0.36, 1.82, 5.09, 1.98, 1.62, 7.47, repro,
2008-05-08,3.25, -0.78, 0.08, 2.22, 1.79, 8.11, repro,
2008-05-09,-1.34, -0.18, -0.06, 2.06, 1.69, 7.63, repro,
2008-05-10,-1.02, 1.42, 3.90, 1.98, 1.59, 7.37, repro,
2008-05-11,-1.04, 0.82, 2.14, 2.05, 1.69, 7.58, repro,
2008-05-12,0.89, -2.26, 6.69, 2.06, 1.72, 7.77, repro,
2008-05-13,-0.67, 0.05, 8.52, 2.01, 1.66, 7.53, repro,
2008-05-14,0.23, 1.32, -4.72, 2.02, 1.66, 7.52, repro,
2008-05-15,2.70, 1.07, -1.66, 1.98, 1.58, 7.31, repro,
2008-05-16,-0.29, 1.64, -7.91, 1.99, 1.60, 7.36, repro,
2008-05-17,-0.29, -0.53, -0.99, 2.05, 1.67, 7.49, repro,
2008-05-18,-0.04, -2.64, 5.03, 2.02, 1.63, 7.53, repro,
2008-05-19,-0.91, 2.40, -0.89, 2.00, 1.65, 7.46, repro,
2008-05-20,-0.24, 0.02, 9.15, 1.97, 1.59, 7.36, repro,
2008-05-21,-3.03, 1.18, 13.06, 2.03, 1.70, 7.81, repro,
2008-05-22,-0.67, -0.66, 7.87, 2.02, 1.70, 7.59, repro,
2008-05-23,-2.41, 1.63, 10.10, 2.04, 1.75, 7.67, repro,
2008-05-24,-1.96, 1.80, -0.27, 1.99, 1.64, 7.47, repro,
2008-05-25,-0.85, 0.87, 3.46, 1.99, 1.64, 7.47, repro,
2008-05-26,-1.87, 1.62, 4.16, 2.00, 1.67, 7.55, repro,
2008-05-27,-1.19, 1.52, -1.36, 2.00, 1.65, 7.57, repro,
2008-05-28,-0.61, 0.81, -0.80, 2.01, 1.66, 7.61, repro,
2008-05-29,-0.54, 0.64, -4.75, 2.04, 1.71, 7.70, repro,
2008-05-30,-1.24, 2.89, 3.77, 2.00, 1.66, 7.62, repro,
2008-05-31,-0.08, 3.94, -2.29, 2.00, 1.65, 7.54, repro,
2008-06-01,1.41, 0.09, -14.17, 1.99, 1.64, 7.52, repro,
2008-06-02,-0.68, 1.05, 3.27, 1.98, 1.65, 7.53, repro,
2008-06-03,-0.06, 0.53, 7.95, 2.07, 1.72, 7.76, repro,
2008-06-04,0.09, 2.72, 27.57, 1.98, 1.60, 7.40, repro,
2008-06-05,0.07, 0.84, 4.37, 2.01, 1.67, 7.50, repro,
2008-06-06,-0.46, 2.05, 8.13, 1.98, 1.61, 7.40, repro,
2008-06-07,-0.13, -0.38, 9.41, 2.02, 1.67, 7.59, repro,
2008-06-08,0.38, 0.53, 3.26, 2.04, 1.71, 7.57, repro,
2008-06-09,-0.87, 2.16, 8.17, 2.06, 1.70, 7.54, repro,
2008-06-10,-0.93, 0.33, 2.30, 1.98, 1.59, 7.32, repro,
2008-06-11,-0.08, 2.36, 16.86, 1.99, 1.63, 7.47, repro,
2008-06-12,-0.41, 1.56, 1.94, 1.96, 1.62, 7.38, repro,
2008-06-13,-0.37, 2.24, -0.82, 1.96, 1.58, 7.25, repro,
2008-06-14,0.04, 2.15, -2.86, 2.06, 1.69, 7.58, repro,
2008-06-15,-0.40, 2.51, -3.68, 2.04, 1.61, 7.41, repro,
2008-06-16,0.83, 2.48, 4.63, 1.97, 1.59, 7.33, repro,
2008-06-17,0.54, 2.32, 0.81, 1.96, 1.59, 7.31, repro,
2008-06-18,-2.02, 1.89, 6.33, 1.96, 1.60, 7.33, repro,
2008-06-19,0.24, 1.81, -3.37, 1.99, 1.65, 7.41, repro,
2008-06-20,-1.51, -0.38, 0.30, 2.01, 1.66, 7.46, repro,
2008-06-21,-1.29, 2.22, -2.87, 1.99, 1.60, 7.32, repro,
2008-06-22,-3.40, -0.52, 1.00, 2.02, 1.66, 7.45, repro,
2008-06-23,-0.53, 1.29, 7.22, 1.96, 1.58, 7.25, repro,
2008-06-24,-1.30, 1.25, 2.97, 2.00, 1.65, 7.40, repro,
2008-06-25,-0.64, 1.20, 5.78, 1.99, 1.65, 7.39, repro,
2008-06-26,-0.05, 0.96, 5.32, 2.03, 1.69, 7.53, repro,
2008-06-27,-0.35, 1.39, 8.53, 1.97, 1.58, 7.27, repro,
2008-06-28,-1.52, 1.04, 2.20, 1.99, 1.64, 7.32, repro,
2008-06-29,-0.02, 2.00, 2.71, 1.98, 1.65, 7.39, repro,
2008-06-30,0.11, 1.63, -1.89, 2.00, 1.66, 7.41, repro,
2008-07-01,-1.49, 1.56, 6.23, 2.02, 1.66, 7.46, repro,
2008-07-02,-0.98, -0.08, 3.86, 1.99, 1.58, 7.30, repro,
2008-07-03,-0.44, 1.52, 8.35, 1.99, 1.63, 7.29, repro,
2008-07-04,-0.12, 2.97, 5.79, 1.99, 1.65, 7.38, repro,
2008-07-05,-0.30, 2.96, 2.73, 1.96, 1.59, 7.31, repro,
2008-07-06,0.23, 1.56, 2.19, 1.97, 1.59, 7.33, repro,
2008-07-07,-0.11, 2.00, 3.44, 2.01, 1.66, 7.42, repro,